| time (UTC) | temp C | wind direction | speed KPH | gust KPH | rain 1hr cm | rain 24hr cm | rain mn cm | humidity % | barometer mb |
| 20260503011335 | 7 | 255 | 0.0 | 0.0 | 0.00 | 0.13 | 0.13 | 67 | 1011.5 |
| 20260503010338 | 7 | 255 | 0.0 | 0.0 | 0.00 | 0.13 | 0.13 | 66 | 1011.5 |
| 20260503005316 | 8 | 244 | 0.0 | 0.0 | 0.00 | 0.13 | 0.13 | 65 | 1011.4 |
| 20260503004337 | 8 | 245 | 0.0 | 3.2 | 0.00 | 0.13 | 0.13 | 66 | 1011.3 |
| 20260503003334 | 8 | 234 | 0.0 | 0.0 | 0.00 | 0.13 | 0.13 | 71 | 1011.1 |
| 20260503002328 | 8 | 288 | 0.0 | 0.0 | 0.00 | 0.13 | 0.13 | 69 | 1010.9 |
| 20260503001321 | 8 | 288 | 0.0 | 0.0 | 0.00 | 0.13 | 0.13 | 69 | 1010.8 |
| 20260503000315 | 9 | 288 | 0.0 | 0.0 | 0.00 | 0.13 | 0.13 | 69 | 1010.8 |
| 20260502235335 | 10 | 288 | 0.0 | 0.0 | 0.00 | 0.13 | 0.13 | 67 | 1010.6 |
| 20260502234334 | 10 | 288 | 0.0 | 0.0 | 0.00 | 0.13 | 0.13 | 63 | 1010.6 |
| 20260502233333 | 11 | 288 | 0.0 | 0.0 | 0.00 | 0.13 | 0.13 | 61 | 1010.5 |
| 20260502232352 | 11 | 288 | 0.0 | 0.0 | 0.00 | 0.13 | 0.13 | 58 | 1010.5 |
| 20260502231353 | 12 | 288 | 0.0 | 4.8 | 0.00 | 0.13 | 0.13 | 50 | 1010.4 |
| 20260502230324 | 12 | 305 | 0.0 | 8.0 | 0.00 | 0.13 | 0.13 | 49 | 1010.3 |
| 20260502224349 | 13 | 274 | 1.6 | 6.4 | 0.00 | 0.13 | 0.13 | 49 | 1010.3 |
| 20260502223326 | 13 | 265 | 1.6 | 9.7 | 0.00 | 0.13 | 0.13 | 50 | 1010.2 |
| 20260502222320 | 14 | 280 | 1.6 | 6.4 | 0.00 | 0.13 | 0.13 | 52 | 1010.2 |
| 20260502221338 | 13 | 353 | 1.6 | 4.8 | 0.00 | 0.13 | 0.13 | 50 | 1010.1 |
| 20260502220336 | 13 | 280 | 0.0 | 4.8 | 0.00 | 0.13 | 0.13 | 52 | 1010.0 |
| 20260502215335 | 14 | 69 | 1.6 | 8.0 | 0.00 | 0.13 | 0.13 | 48 | 1009.9 |
| 20260502214331 | 15 | 345 | 1.6 | 8.0 | 0.00 | 0.13 | 0.13 | 44 | 1009.8 |
| 20260502213349 | 16 | 186 | 0.0 | 4.8 | 0.00 | 0.13 | 0.13 | 44 | 1009.8 |
| 20260502212348 | 15 | 302 | 1.6 | 4.8 | 0.00 | 0.13 | 0.13 | 45 | 1009.8 |
| 20260502211323 | 15 | 337 | 0.0 | 4.8 | 0.00 | 0.13 | 0.13 | 45 | 1009.7 |
| 20260502210342 | 15 | 292 | 0.0 | 4.8 | 0.00 | 0.13 | 0.13 | 46 | 1009.7 |
| 20260502205315 | 15 | 260 | 0.0 | 6.4 | 0.00 | 0.13 | 0.13 | 44 | 1009.9 |
| 20260502204325 | 15 | 287 | 3.2 | 4.8 | 0.00 | 0.13 | 0.13 | 45 | 1010.1 |
| 20260502203322 | 15 | 176 | 1.6 | 6.4 | 0.00 | 0.13 | 0.13 | 51 | 1010.2 |
| 20260502202312 | 15 | 37 | 1.6 | 6.4 | 0.00 | 0.13 | 0.13 | 48 | 1010.2 |
| 20260502201331 | 15 | 321 | 1.6 | 3.2 | 0.00 | 0.13 | 0.13 | 54 | 1010.3 |
| 20260502200323 | 14 | 283 | 0.0 | 3.2 | 0.00 | 0.13 | 0.13 | 50 | 1010.5 |
| 20260502195316 | 14 | 281 | 3.2 | 4.8 | 0.00 | 0.13 | 0.13 | 54 | 1010.6 |
| 20260502194338 | 13 | 36 | 1.6 | 9.7 | 0.00 | 0.13 | 0.13 | 55 | 1010.7 |
| 20260502193334 | 13 | 293 | 1.6 | 4.8 | 0.00 | 0.13 | 0.13 | 56 | 1010.9 |
| 20260502192329 | 13 | 276 | 0.0 | 6.4 | 0.00 | 0.13 | 0.13 | 58 | 1011.1 |
| 20260502191324 | 13 | 339 | 1.6 | 4.8 | 0.00 | 0.13 | 0.13 | 60 | 1011.2 |
| 20260502190317 | 12 | 287 | 1.6 | 8.0 | 0.00 | 0.13 | 0.13 | 58 | 1011.4 |
| 20260502185311 | 12 | 277 | 1.6 | 4.8 | 0.00 | 0.13 | 0.13 | 62 | 1011.4 |
| 20260502184334 | 12 | 285 | 1.6 | 6.4 | 0.00 | 0.13 | 0.13 | 63 | 1011.7 |
| 20260502183331 | 11 | 278 | 1.6 | 4.8 | 0.00 | 0.13 | 0.13 | 69 | 1011.6 |
| 20260502182326 | 11 | 289 | 0.0 | 4.8 | 0.00 | 0.13 | 0.13 | 71 | 1011.8 |
| 20260502181319 | 10 | 284 | 1.6 | 4.8 | 0.00 | 0.13 | 0.13 | 72 | 1011.8 |
| 20260502180329 | 10 | 281 | 0.0 | 4.8 | 0.00 | 0.13 | 0.13 | 73 | 1011.8 |
| 20260502170332 | 10 | 252 | 0.0 | 8.0 | 0.00 | 0.13 | 0.13 | 78 | 1011.9 |
| 20260502164318 | 11 | 77 | 3.2 | 9.7 | 0.00 | 0.13 | 0.13 | 75 | 1011.6 |
| 20260502163312 | 12 | 321 | 1.6 | 6.4 | 0.00 | 0.13 | 0.13 | 69 | 1011.4 |
| 20260502162330 | 13 | 340 | 0.0 | 1.6 | 0.00 | 0.13 | 0.13 | 69 | 1011.4 |
| 20260502161352 | 13 | 2 | 0.0 | 3.2 | 0.00 | 0.13 | 0.13 | 69 | 1011.3 |
| 20260502160352 | 13 | 15 | 1.6 | 4.8 | 0.00 | 0.13 | 0.13 | 69 | 1011.6 |
| 20260502152329 | 12 | 240 | 0.0 | 1.6 | 0.00 | 0.13 | 0.13 | 78 | 1011.7 |
| 20260502151321 | 12 | 136 | 0.0 | 1.6 | 0.00 | 0.13 | 0.13 | 76 | 1012.0 |
| 20260502150340 | 12 | 184 | 0.0 | 1.6 | 0.00 | 0.13 | 0.13 | 78 | 1012.0 |
| 20260502130315 | 9 | 276 | 0.0 | 1.6 | 0.00 | 0.13 | 0.13 | 93 | 1012.3 |
| 20260502123321 | 8 | 278 | 0.0 | 0.0 | 0.00 | 0.13 | 0.13 | 95 | 1012.2 |
| 20260502122315 | 8 | 278 | 0.0 | 0.0 | 0.00 | 0.13 | 0.13 | 95 | 1012.1 |
| 20260502121354 | 8 | 278 | 0.0 | 1.6 | 0.00 | 0.13 | 0.13 | 95 | 1012.2 |
| 20260502120330 | 8 | 125 | 0.0 | 0.0 | 0.03 | 0.13 | 0.13 | 95 | 1012.2 |
| 20260502115320 | 8 | 125 | 0.0 | 1.6 | 0.05 | 0.13 | 0.13 | 95 | 1012.0 |
| 20260502114340 | 8 | 124 | 0.0 | 1.6 | 0.08 | 0.13 | 0.13 | 95 | 1012.1 |
| 20260502113315 | 8 | 124 | 0.0 | 1.6 | 0.08 | 0.13 | 0.13 | 95 | 1012.1 |
| 20260502112356 | 7 | 124 | 0.0 | 0.0 | 0.08 | 0.13 | 0.13 | 95 | 1012.3 |
| 20260502111328 | 7 | 124 | 0.0 | 0.0 | 0.08 | 0.13 | 0.13 | 95 | 1012.4 |
| 20260502110325 | 7 | 124 | 0.0 | 1.6 | 0.05 | 0.10 | 0.10 | 95 | 1012.4 |
| 20260502105317 | 7 | 124 | 0.0 | 0.0 | 0.03 | 0.08 | 0.08 | 94 | 1012.1 |
| 20260502104314 | 7 | 124 | 0.0 | 0.0 | 0.00 | 0.05 | 0.05 | 94 | 1012.4 |
| 20260502103336 | 7 | 124 | 0.0 | 0.0 | 0.00 | 0.05 | 0.05 | 94 | 1012.2 |
| 20260502102329 | 7 | 124 | 0.0 | 0.0 | 0.00 | 0.05 | 0.05 | 94 | 1012.2 |
| 20260502101325 | 7 | 124 | 0.0 | 0.0 | 0.00 | 0.05 | 0.05 | 94 | 1012.2 |
| 20260502100316 | 7 | 124 | 0.0 | 0.0 | 0.00 | 0.05 | 0.05 | 94 | 1012.2 |
| 20260502091316 | 7 | 124 | 0.0 | 0.0 | 0.05 | 0.05 | 0.05 | 93 | 1011.8 |
| 20260502090337 | 7 | 124 | 0.0 | 0.0 | 0.05 | 0.05 | 0.05 | 93 | 1011.6 |
| 20260502071337 | 8 | 124 | 0.0 | 0.0 | 0.00 | 0.00 | 0.00 | 90 | 1011.6 |
| 20260502070333 | 8 | 124 | 0.0 | 0.0 | 0.00 | 0.00 | 0.00 | 89 | 1012.0 |
| 20260502065322 | 8 | 124 | 0.0 | 0.0 | 0.00 | 0.00 | 0.00 | 89 | 1011.7 |
| 20260502064316 | 8 | 124 | 0.0 | 0.0 | 0.00 | 0.00 | 0.00 | 88 | 1012.1 |
| 20260502063327 | 8 | 124 | 0.0 | 0.0 | 0.00 | 0.00 | 0.00 | 87 | 1011.9 |
| 20260502062346 | 8 | 124 | 0.0 | 0.0 | 0.00 | 0.00 | 0.00 | 85 | 1012.0 |
| 20260502061318 | 8 | 124 | 0.0 | 0.0 | 0.00 | 0.00 | 0.00 | 84 | 1011.8 |
| 20260502060313 | 8 | 124 | 0.0 | 0.0 | 0.00 | 0.00 | 0.00 | 82 | 1011.9 |
| 20260502055330 | 8 | 124 | 0.0 | 0.0 | 0.00 | 0.00 | 0.00 | 81 | 1012.0 |
| 20260502054351 | 8 | 124 | 0.0 | 0.0 | 0.00 | 0.00 | 0.00 | 81 | 1012.1 |
| 20260502053350 | 9 | 124 | 0.0 | 0.0 | 0.00 | 0.00 | 0.00 | 80 | 1012.2 |
| 20260502052324 | 9 | 124 | 0.0 | 1.6 | 0.00 | 0.00 | 0.00 | 79 | 1011.8 |
| 20260502051318 | 9 | 124 | 0.0 | 1.6 | 0.00 | 0.00 | 0.00 | 78 | 1012.1 |
| 20260502050314 | 9 | 124 | 0.0 | 1.6 | 0.00 | 0.00 | 0.00 | 78 | 1012.3 |
| 20260502045318 | 9 | 146 | 0.0 | 1.6 | 0.00 | 0.00 | 0.00 | 78 | 1012.1 |
| 20260502044312 | 9 | 147 | 0.0 | 0.0 | 0.00 | 0.00 | 0.00 | 78 | 1012.1 |
| 20260502043333 | 9 | 148 | 0.0 | 0.0 | 0.00 | 0.00 | 0.00 | 78 | 1012.1 |
| 20260502042331 | 9 | 148 | 0.0 | 1.6 | 0.00 | 0.00 | 0.00 | 78 | 1012.1 |
| 20260502041321 | 8 | 137 | 0.0 | 0.0 | 0.00 | 0.00 | 0.00 | 78 | 1012.2 |
| 20260502040320 | 8 | 138 | 0.0 | 0.0 | 0.00 | 0.00 | 0.00 | 77 | 1012.2 |
| 20260502035332 | 9 | 137 | 0.0 | 0.0 | 0.00 | 0.00 | 0.00 | 77 | 1012.2 |
| 20260502034329 | 9 | 138 | 0.0 | 0.0 | 0.00 | 0.00 | 0.00 | 75 | 1012.1 |
| 20260502033321 | 10 | 138 | 0.0 | 0.0 | 0.00 | 0.00 | 0.00 | 74 | 1012.2 |
| 20260502032315 | 10 | 137 | 0.0 | 0.0 | 0.00 | 0.00 | 0.00 | 74 | 1012.3 |
| 20260502031330 | 10 | 138 | 0.0 | 0.0 | 0.00 | 0.00 | 0.00 | 73 | 1012.3 |
| 20260502030321 | 10 | 138 | 0.0 | 0.0 | 0.00 | 0.00 | 0.00 | 72 | 1012.4 |
| 20260502025313 | 10 | 138 | 0.0 | 0.0 | 0.00 | 0.00 | 0.00 | 72 | 1012.5 |
| 20260502024354 | 10 | 138 | 0.0 | 0.0 | 0.00 | 0.00 | 0.00 | 71 | 1012.3 |
| 20260502023325 | 11 | 138 | 0.0 | 0.0 | 0.00 | 0.00 | 0.00 | 69 | 1012.3 |
| 20260502022312 | 11 | 138 | 0.0 | 1.6 | 0.00 | 0.00 | 0.00 | 68 | 1012.5 |
| 20260502021332 | 11 | 174 | 0.0 | 1.6 | 0.00 | 0.00 | 0.00 | 68 | 1012.4 |
| 20260502020327 | 11 | 137 | 0.0 | 1.6 | 0.00 | 0.00 | 0.00 | 67 | 1012.4 |
| 20260502015337 | 11 | 136 | 0.0 | 1.6 | 0.00 | 0.03 | 0.00 | 67 | 1012.4 |
| 20260502014326 | 11 | 165 | 0.0 | 1.6 | 0.00 | 0.03 | 0.00 | 66 | 1012.5 |
| 20260502013319 | 11 | 148 | 0.0 | 0.0 | 0.00 | 0.03 | 0.00 | 66 | 1012.6 |
| 20260502012314 | 11 | 148 | 0.0 | 1.6 | 0.00 | 0.03 | 0.00 | 66 | 1012.5 |